This is the latest recevied weather packets stored in our database for station/object KB3HLL. If no packets are shown the sender has not sent any weather packets the latest 10 day(s).
| Time | Temp. | Humidity | Pressure | Rain* | Wind** | Luminosity | Snow |
|---|---|---|---|---|---|---|---|
| 1777586778 | 7.78° C | 91% | 1010.5 hPa | 0 mm | - | 132 W/m² | - |
| 1777586478 | 7.78° C | 90% | 1010.5 hPa | 0 mm | - | 120 W/m² | - |
| 1777586178 | 7.78° C | 94% | 1010.5 hPa | 0.25 mm | - | 63 W/m² | - |
| 1777585879 | 7.78° C | 97% | 1010.2 hPa | 0.25 mm | - | 69 W/m² | - |
| 1777585578 | 7.78° C | 95% | 1010.5 hPa | 0.25 mm | - | 56 W/m² | - |
| 1777585278 | 7.78° C | 96% | 1010.2 hPa | 0.25 mm | - | 84 W/m² | - |
| 1777584978 | 7.78° C | 96% | 1010.2 hPa | 0.25 mm | - | 149 W/m² | - |
| 1777584678 | 7.78° C | 98% | 1010 hPa | 0.25 mm | - | 184 W/m² | - |
| 1777584378 | 7.78° C | 96% | 1010.2 hPa | 0.25 mm | - | 192 W/m² | - |
| 1777584078 | 7.78° C | 98% | 1009.8 hPa | 0.25 mm | - | 154 W/m² | - |
| 1777583779 | 7.78° C | 100% | 1009 hPa | 0.25 mm | - | 190 W/m² | - |
| 1777583478 | 7.22° C | 100% | 1008.6 hPa | 0.25 mm | - | 284 W/m² | - |
| 1777583178 | 7.22° C | 100% | 1008.2 hPa | 0.25 mm | - | 235 W/m² | - |
| 1777582878 | 7.22° C | 100% | 1008 hPa | 0.25 mm | - | 375 W/m² | - |
| 1777582578 | 7.22° C | 100% | 1008.7 hPa | 0.25 mm | - | 279 W/m² | - |
| 1777582277 | 7.78° C | 100% | 1009.3 hPa | 0 mm | - | 129 W/m² | - |
| 1777581978 | 7.78° C | 98% | 1009.4 hPa | 0 mm | - | 132 W/m² | - |
| 1777581678 | 7.78° C | 98% | 1009.3 hPa | 0 mm | - | 79 W/m² | - |
| 1777581379 | 8.33° C | 96% | 1009.6 hPa | 0 mm | - | 113 W/m² | - |
| 1777581078 | 8.89° C | 90% | 1009.8 hPa | 0 mm | - | 95 W/m² | - |
| 1777580779 | 8.33° C | 91% | 1009.6 hPa | 0 mm | - | 177 W/m² | - |
| 1777580478 | 8.33° C | 91% | 1009.8 hPa | 0 mm | - | 180 W/m² | - |
| 1777580178 | 8.33° C | 93% | 1009.8 hPa | 0 mm | - | 172 W/m² | - |
| 1777579878 | 8.33° C | 93% | 1009.5 hPa | 0 mm | - | 139 W/m² | - |
| 1777579578 | 8.89° C | 90% | 1009.5 hPa | 0 mm | - | 124 W/m² | - |
* Rain latest hour (hover to see other rain measurements)
** Current wind speed in m/s (hover to see current wind gust speed)